Regional Weather Roundup
Issued by NWS Northern Indiana

Home | Current Version | Previous Version | Text Only | Print | Product List | Glossary On
Versions: 1 2 3 4 5 6 7 8 9 10 11 12 13 14 15 16 17 18 19 20 21 22 23 24 25 26 27 28 29 30 31 32 33 34 35 36 37 38 39 40 41 42 43 44 45 46 47 48 49 50
000
ASUS43 KIWX 260010
RWRIWX

KIWX WEATHER ROUNDUP
NATIONAL WEATHER SERVICE NORTHERN INDIANA
800 PM EDT THU AUG 25 2016

NOTE: "FAIR" INDICATES FEW OR NO CLOUDS BELOW 12,000 FEET WITH NO
SIGNIFICANT WEATHER AND/OR OBSTRUCTIONS TO VISIBILITY.

* THESE STATIONS ARE NOT UNDER NWS QUALITY CONTROL. THEY ALSO MAY NOT
  REPORT WEATHER SUCH AS PRECIPITATION OR FOG.

INZ001>027-260100-
NORTHERN INDIANA

CITY           SKY/WX    TMP DP  RH WIND       PRES   REMARKS
GARY*          MOCLDY    79  73  83 CALM      30.03R
VALPARAISO     MOCLDY    77  72  84 N3        30.03S
6HR MIN TEMP:  76; 6HR MAX TEMP:  82; 6HR PCP:  0.03;

MICHIGAN CITY* CLOUDY    75  70  83 CALM      30.03S
LAPORTE*       CLOUDY    78  75  91 CALM      30.04R
6HR MIN TEMP:  77; 6HR MAX TEMP:  82;

KNOX*          MOCLDY    75  54  46 N3        30.02S
SOUTH BEND     CLOUDY    75  69  81 NW5       30.03F
6HR MIN TEMP:  74; 6HR MAX TEMP:  80; 6HR PCP: TRACE;

ELKHART*       PTCLDY    77  68  73 NW7       30.04R
GOSHEN         CLEAR     77  68  73 NW6       30.03R
6HR MIN TEMP:  77; 6HR MAX TEMP:  81;

MONTICELLO*    PTCLDY    80  68  65 CALM      30.02S
6HR MIN TEMP:  80; 6HR MAX TEMP:  84;

LOGANSPORT*    CLEAR     79  70  73 W3        30.04S
ROCHESTER*     CLEAR     81  73  78 SW5       30.04S
WARSAW*        PTCLDY    79  72  78 W6        30.03S
ANGOLA*        CLEAR     79  72  78 W5        30.03S
FORT WAYNE     PTCLDY    80  69  69 W8        30.03S
6HR MIN TEMP:  80; 6HR MAX TEMP:  86;

HUNTINGTON*    CLEAR    N/A N/A N/A W5        30.03S
PERU/GRISSOM   CLEAR     80  73  77 W6        30.02F
6HR MIN TEMP:  80; 6HR MAX TEMP:  86;

MARION*        CLEAR     80  71  74 W3        30.04S
6HR MIN TEMP:  51; 6HR MAX TEMP:  90;


$$
INZ028>050-260100-
CENTRAL INDIANA

CITY           SKY/WX    TMP DP  RH WIND       PRES   REMARKS
LAFAYETTE      PTCLDY    80  74  81 NW5       30.02S
6HR MIN TEMP:  80; 6HR MAX TEMP:  84;

MUNCIE*        CLEAR     83  71  67 W8        30.04S
6HR MIN TEMP:  82; 6HR MAX TEMP:  88;

INDIANAPOLIS   PTCLDY    83  71  67 SW8       30.04S
6HR MIN TEMP:  83; 6HR MAX TEMP:  90;


$$
MIZ043>046-050>051-056>058-064>065-071>073-077>080-260100-
SOUTHWEST LOWER MICHIGAN

CITY           SKY/WX    TMP DP  RH WIND       PRES   REMARKS
BATTLE CREEK   CLEAR     73  67  81 NW9       30.03R
6HR MIN TEMP:  73; 6HR MAX TEMP:  80;

BENTON HARBOR  CLOUDY    74  64  71 CALM      30.03S
6HR MIN TEMP:  73; 6HR MAX TEMP:  78;

COLDWATER*     CLEAR     76  67  71 W8        30.03R
6HR MIN TEMP:  76; 6HR MAX TEMP:  82;

HILLSDALE*     PTCLDY    76  68  75 W5        30.02S
6HR MIN TEMP:  51; 6HR MAX TEMP:  84;

HOLLAND        CLOUDY    72  65  78 W7        30.03S
6HR MIN TEMP:  72; 6HR MAX TEMP:  78;

GRAND RAPIDS   MOCLDY    74  60  61 W10       30.02S
6HR MIN TEMP:  74; 6HR MAX TEMP:  82; 6HR PCP: TRACE;

KALAMAZOO      CLEAR     75  64  68 NW9       30.03S
6HR MIN TEMP:  75; 6HR MAX TEMP:  82;

STURGIS*       CLEAR     77  68  74 CALM      30.02S
6HR MIN TEMP:  77; 6HR MAX TEMP:  82; 6HR PCP:  0.01;

THREE RIVERS*  FAIR      77  69  76 NW7       30.04R
6HR MIN TEMP:  77; 6HR MAX TEMP:  82;


$$
OHZ001>008-015>018-024>025-260100-
NORTHWEST OHIO

CITY           SKY/WX    TMP DP  RH WIND       PRES   REMARKS
WAUSEON*       FAIR      79  70  73 W8        30.01R
DEFIANCE       CLEAR     81  69  67 W5        30.01S
6HR MIN TEMP:  81; 6HR MAX TEMP:  87;

FINDLAY        CLEAR     82  67  60 W12       30.01R
6HR MIN TEMP:  82; 6HR MAX TEMP:  91;

TOLEDO EXPRESS CLEAR     81  71  71 W10       29.99S
6HR MIN TEMP:  81; 6HR MAX TEMP:  87;

TOLEDO METCALF PTCLDY    82  70  66 W14       30.00R
6HR MIN TEMP:  82; 6HR MAX TEMP:  89;

LIMA           CLEAR     79  71  76 W10       30.03S
6HR MIN TEMP:  79; 6HR MAX TEMP:  88;


$$
AND FOR LAKE MICHIGAN COASTAL AND OPEN LAKE BUOY OBSERVATIONS

STATION/POSITION TEMP    WIND        PRES    VSBY  WAVE
                 AIR SEA DIR/SP/G                  HT/PER
                 (F)     (DEG/KT/KT) (MB)    (MI)  (FT/S)
CALUMET HARBOR    74                 1016.1S
MICHIGAN CITY     74      30/  5/  6   N/A
BURNS HARBOR      75      50/  9/  9 1016.9S
SAINT JOSEPH      74      10/  3/  5 1016.9F
SOUTH LAKE BUOY   74 75  270/  2/  2 1016.1F         1/ 4
4 MI NW BRIDGMAN  74 75   20/  4/  6 1016.5F         1/ 3
MICHIGAN CITY     74 74   60/  6/  6   N/A           1

$$
&&




USA.gov is the U.S. government's official web portal to all federal, state and local government web resources and services.